Sault Ste Marie, MI

5:20 PM EST on January 23, 2018 (GMT -0500)
Sault Ste Marie Municipal / Sanderson Field

Weather History for KANJ - April, 2013

Change the Weather History Date:

Tuesday, April 2, 2013

  Actual Average Record
Temperature  
Mean Temperature 19 °F 34 °F  
Max Temperature 26 °F 42 °F 77 °F (2010)
Min Temperature 11 °F 25 °F 7 °F (1954)
Degree Days  
Heating Degree Days 46 31  
Month to date heating degree days 91 63  
Since 1 July heating degree days 7037 7389  
Cooling Degree Days 0 0  
Month to date cooling degree days 0 0  
Year to date cooling degree days 0 0  
Moisture  
Dew Point 13 °F    
Average Humidity 70    
Maximum Humidity 84    
Minimum Humidity 55    
Precipitation  
Precipitation 0.01 in 0.08 in 0.87 in (1920)
Month to date precipitation 0.17 0.16  
Year to date precipitation 8.86 5.64  
Snow  
Snow 0.40 in 0.30 in 6.20 in (1923)
Month to date snowfall 2.6 0.7  
Since 1 July snowfall 142.2 114.3  
Snow Depth 20.00 in    
Sea Level Pressure  
Sea Level Pressure 30.10 in    
Wind  
Wind Speed 11 mph (NW)    
Max Wind Speed 25 mph    
Max Gust Speed 33 mph    
Visibility 6 miles    
Events Snow    
T = Trace of Precipitation, MM = Missing Value Source: NWS Daily Summary

Daily Weather History Graph

Daily Weather History Graph

Search for Another Location

Airport or City:

Trip Planner

Search our weather history database for the weather conditions in past years. The results will help you decide how hot, cold, wet, or windy it might be!

Date:

Astronomy

Apr. 02, 2013 Rise Set
Actual Time 7:14 AM EDT 8:08 PM EDT
Civil Twilight 6:44 AM EDT 8:38 PM EDT
Nautical Twilight 6:07 AM EDT 9:15 PM EDT
Astronomical Twilight 5:29 AM EDT 9:53 PM EDT
Moon 2:26 AM EDT (4/2) 11:50 AM EDT (4/2)
Length of Visible Light 13h 54m
Length of Day
12h 53m
Waning Gibbous, 56% of the Moon is Illuminated
Apr 2
Waning Gibbous
Apr 3
Last Quarter
Apr 10
New
Apr 18
First Quarter
Apr 25
Full

Hourly Weather History & Observations

Time (EDT) Temp. Windchill Dew Point Humidity Pressure Visibility Wind Dir Wind Speed Gust Speed Precip Events Conditions
12:55 AM 21.0 °F 14.6 °F 12.0 °F 68% 30.01 in 9.0 mi NW 4.6 mph - 0.00 in Snow Light Snow
1:55 AM 21.0 °F 16.2 °F 10.9 °F 65% 30.01 in 10.0 mi North 3.5 mph - 0.00 in   Overcast
2:55 AM 17.1 °F - 9.0 °F 71% 30.00 in 10.0 mi Calm Calm - N/A   Overcast
3:55 AM 18.0 °F - 10.0 °F 71% 30.01 in 10.0 mi Calm Calm - N/A   Overcast
4:55 AM 18.0 °F 11.1 °F 10.9 °F 74% 30.02 in 9.0 mi NW 4.6 mph - 0.00 in   Overcast
5:23 AM 17.1 °F 10.0 °F 10.9 °F 77% 29.98 in 10.0 mi WNW 4.6 mph - N/A   Overcast
5:55 AM 16.0 °F 10.4 °F 8.1 °F 71% 30.03 in 10.0 mi West 3.5 mph - N/A   Mostly Cloudy
6:29 AM 16.0 °F - 7.0 °F 68% 30.00 in 10.0 mi Calm Calm - N/A   Overcast
6:55 AM 15.1 °F - 6.1 °F 68% 30.03 in 10.0 mi Calm Calm - N/A   Mostly Cloudy
7:55 AM 12.9 °F 6.9 °F 8.1 °F 81% 30.06 in 10.0 mi SSW 3.5 mph - N/A   Overcast
8:55 AM 19.0 °F 13.9 °F 10.0 °F 68% 30.07 in 10.0 mi WSW 3.5 mph - N/A   Overcast
9:55 AM 21.9 °F 15.7 °F 10.9 °F 63% 30.07 in 9.0 mi NW 4.6 mph - 0.00 in Snow Light Snow
10:17 AM 23.0 °F 11.1 °F 12.0 °F 63% 30.03 in 8.0 mi NNW 12.7 mph 23.0 mph 0.00 in Snow Light Snow
10:55 AM 23.0 °F 9.6 °F 12.0 °F 63% 30.08 in 10.0 mi NW 16.1 mph 23.0 mph 0.00 in   Overcast
11:55 AM 24.1 °F 11.5 °F 10.9 °F 57% 30.09 in 10.0 mi NW 15.0 mph 21.9 mph N/A   Mostly Cloudy
12:09 PM 24.1 °F 11.5 °F 10.9 °F 57% 30.07 in 9.0 mi NNW 15.0 mph 28.8 mph N/A   Scattered Clouds
12:26 PM 24.1 °F 9.4 °F 10.9 °F 57% 30.06 in 10.0 mi NW 20.7 mph 26.5 mph N/A   Mostly Cloudy
12:34 PM 24.1 °F 10.6 °F 10.9 °F 57% 30.06 in 10.0 mi NW 17.3 mph 26.5 mph N/A   Mostly Cloudy
12:55 PM 24.1 °F 10.6 °F 10.9 °F 57% 30.09 in 10.0 mi NW 17.3 mph 24.2 mph N/A   Mostly Cloudy
1:55 PM 23.0 °F 8.7 °F 12.9 °F 65% 30.10 in 2.5 mi WNW 18.4 mph 28.8 mph 0.00 in Snow Light Snow
2:01 PM 25.0 °F 11.7 °F 12.9 °F 60% 30.07 in 3.0 mi WNW 17.3 mph 25.3 mph 0.00 in Snow Light Snow
2:06 PM 24.1 °F 10.1 °F 14.0 °F 65% 30.07 in 2.5 mi NW 18.4 mph 29.9 mph 0.00 in Snow Light Snow
2:19 PM 26.1 °F 13.6 °F 12.9 °F 58% 30.08 in 8.0 mi NW 16.1 mph 25.3 mph 0.00 in Snow Light Snow
2:55 PM 24.1 °F 9.4 °F 12.0 °F 60% 30.12 in 7.0 mi NW 20.7 mph 31.1 mph 0.00 in   Overcast
3:16 PM 24.1 °F 9.8 °F 14.0 °F 65% 30.09 in 2.0 mi NW 19.6 mph 31.1 mph 0.00 in Snow Light Snow
3:21 PM 23.0 °F 8.3 °F 15.1 °F 72% 30.09 in 0.8 mi NW 19.6 mph 28.8 mph 0.00 in Snow Light Snow
3:31 PM 24.1 °F 12.0 °F 14.0 °F 65% 30.09 in 2.0 mi WNW 13.8 mph 25.3 mph 0.00 in Snow Light Snow
3:53 PM 24.8 °F 10.7 °F 14.0 °F 64% 30.10 in 3.0 mi NW 19.6 mph 29.9 mph 0.00 in Snow Light Snow
3:55 PM 24.1 °F 11.0 °F 14.0 °F 65% 30.13 in 3.0 mi NW 16.1 mph 29.9 mph 0.00 in Snow Light Snow
4:47 PM 24.1 °F 11.0 °F 14.0 °F 65% 30.10 in 2.0 mi WNW 16.1 mph 26.5 mph 0.00 in Snow Light Snow
4:55 PM 23.0 °F 10.1 °F 15.1 °F 72% 30.14 in 1.0 mi WNW 15.0 mph 29.9 mph 0.00 in Snow Light Snow
5:01 PM 25.0 °F 13.6 °F 15.1 °F 66% 30.11 in 2.0 mi WNW 12.7 mph 25.3 mph 0.00 in Snow Light Snow
5:04 PM 25.0 °F 10.9 °F 14.0 °F 63% 30.11 in 4.0 mi WNW 19.6 mph 27.6 mph 0.00 in Snow Light Snow
5:19 PM 23.0 °F 8.3 °F 12.9 °F 65% 30.12 in 2.0 mi NW 19.6 mph 32.2 mph 0.00 in Snow Light Snow
5:27 PM 24.1 °F 9.8 °F 14.0 °F 65% 30.12 in 1.8 mi WNW 19.6 mph 27.6 mph 0.00 in Snow Light Snow
5:31 PM 24.1 °F 12.5 °F 12.9 °F 62% 30.12 in 3.0 mi NW 12.7 mph 26.5 mph 0.00 in Snow Light Snow
5:42 PM 24.1 °F 10.6 °F 10.0 °F 55% 30.12 in 10.0 mi NW 17.3 mph 26.5 mph 0.00 in   Mostly Cloudy
5:55 PM 24.1 °F 9.8 °F 10.0 °F 55% 30.15 in 8.0 mi WNW 19.6 mph 28.8 mph 0.00 in   Mostly Cloudy
6:25 PM 23.0 °F 8.7 °F 14.0 °F 68% 30.14 in 2.0 mi WNW 18.4 mph 26.5 mph 0.00 in Snow Light Snow
6:34 PM 23.0 °F 9.6 °F 12.9 °F 65% 30.14 in 5.0 mi WNW 16.1 mph 26.5 mph 0.00 in Snow Light Snow
6:37 PM 23.0 °F 9.6 °F 14.0 °F 68% 30.14 in 1.5 mi WNW 16.1 mph 24.2 mph 0.00 in Snow Light Snow
6:49 PM 23.0 °F 9.2 °F 14.0 °F 68% 30.14 in 3.0 mi WNW 17.3 mph 23.0 mph 0.00 in Snow Light Snow
6:55 PM 23.0 °F 9.2 °F 12.9 °F 65% 30.17 in 4.0 mi WNW 17.3 mph 24.2 mph 0.00 in Snow Light Snow
7:11 PM 23.0 °F 8.3 °F 12.0 °F 63% 30.14 in 5.0 mi WNW 19.6 mph 28.8 mph 0.00 in Snow Light Snow
7:55 PM 21.9 °F 7.8 °F 12.9 °F 68% 30.19 in 4.0 mi WNW 17.3 mph 23.0 mph 0.00 in Snow Light Snow
8:55 PM 23.0 °F 9.6 °F 12.9 °F 65% 30.19 in 6.0 mi WNW 16.1 mph 21.9 mph 0.00 in Snow Light Snow
9:55 PM 24.1 °F 12.5 °F 15.1 °F 69% 30.19 in 2.0 mi WNW 12.7 mph 20.7 mph 0.00 in Snow Light Snow
10:03 PM 24.1 °F 12.5 °F 15.1 °F 69% 30.16 in 2.5 mi WNW 12.7 mph 19.6 mph 0.00 in Snow Light Snow
10:11 PM 24.1 °F 13.7 °F 16.0 °F 71% 30.16 in 3.0 mi WNW 10.4 mph 19.6 mph 0.00 in Snow Light Snow
10:23 PM 24.1 °F 13.7 °F 14.0 °F 65% 30.17 in 8.0 mi WNW 10.4 mph - 0.00 in Snow Light Snow
10:42 PM 24.1 °F 13.7 °F 16.0 °F 71% 30.17 in 2.5 mi West 10.4 mph - 0.00 in Snow Light Snow
10:55 PM 24.1 °F 14.4 °F 16.0 °F 71% 30.19 in 3.0 mi WNW 9.2 mph - 0.00 in Snow Light Snow
11:06 PM 24.1 °F 14.4 °F 15.1 °F 69% 30.16 in 7.0 mi WNW 9.2 mph - 0.00 in Snow Light Snow
11:55 PM 25.0 °F 14.2 °F 12.9 °F 60% 30.19 in 10.0 mi NW 11.5 mph 18.4 mph 0.00 in   Overcast